Simultaneous Nadir Overpasses (SNOs) Predictions

Prediction of SNOs between GOES-14 and AQUA Satellite Orbit:

Table of predicted SNOs for the next 14.0 days since TLE Epoch: 2/25/2023
Index Date Time (GOES-14) GOES-14 Lat,Lon AQUA Lat,Lon Distance(km) Time Diff (sec)
1 02/25/2023 08:45:05 0.06,-108.00 -0.52,-105.37 299.48 80
2 02/25/2023 21:06:09 -0.07,-108.05 -0.61,-110.48 276.41 80
3 02/27/2023 20:55:25 -0.07,-108.02 0.09,-107.21 92.23 80
4 02/28/2023 09:16:21 0.08,-107.97 1.02,-112.28 490.40 80
5 03/01/2023 20:42:00 -0.07,-108.00 0.77,-103.94 461.10 80
6 03/02/2023 09:02:56 0.08,-107.94 0.33,-109.01 121.69 80
7 03/04/2023 08:46:51 0.08,-107.91 -0.41,-105.74 247.40 80
8 03/04/2023 21:07:56 -0.09,-107.95 -0.68,-110.85 329.35 80
9 03/06/2023 20:57:09 -0.09,-107.92 -0.02,-107.56 40.56 80
10 03/08/2023 20:43:42 -0.09,-107.90 0.69,-104.29 410.89 80
11 03/09/2023 09:04:37 0.10,-107.85 0.43,-109.35 170.36 80
